Time,TemperatureF,DewpointF,PressureIn,WindDirection,WindDirectionDegrees,WindSpeedMPH,WindSpeedGustMPH,Humidity,HourlyPrecipIn,Conditions,Clouds,dailyrainin,SolarRadiationWatts/m^2,SoftwareType,DateUTC
2013-06-07 00:02:00,57.0,40.0,-100.00,West,277,1.0,7.0,52,0.00,,,0.00,0.000000,,2013-06-07 07:02:00,
2013-06-07 00:11:00,56.0,40.0,-100.00,ESE,107,1.0,6.0,55,0.00,,,0.00,0.000000,,2013-06-07 07:11:00,
2013-06-07 00:32:00,56.0,40.0,-100.00,ESE,107,1.0,6.0,55,0.00,,,0.00,0.000000,,2013-06-07 07:32:00,
2013-06-07 00:42:00,56.0,40.0,-100.00,ESE,107,1.0,6.0,55,0.00,,,0.00,0.000000,,2013-06-07 07:42:00,
2013-06-07 00:52:00,56.0,40.0,-100.00,ESE,107,1.0,6.0,55,0.00,,,0.00,0.000000,,2013-06-07 07:52:00,
2013-06-07 01:02:00,56.0,40.0,-100.00,ESE,107,1.0,6.0,55,0.00,,,0.00,0.000000,,2013-06-07 08:02:00,
2013-06-07 01:11:00,55.0,35.0,-100.00,SSW,206,0.0,6.0,47,0.00,,,0.00,0.000000,,2013-06-07 08:11:00,
2013-06-07 01:32:00,55.0,35.0,-100.00,SSW,206,0.0,6.0,47,0.00,,,0.00,0.000000,,2013-06-07 08:32:00,
2013-06-07 01:43:00,55.0,35.0,-100.00,SSW,206,0.0,6.0,47,0.00,,,0.00,0.000000,,2013-06-07 08:43:00,
2013-06-07 01:52:00,55.0,35.0,-100.00,SSW,206,0.0,6.0,47,0.00,,,0.00,0.000000,,2013-06-07 08:52:00,
2013-06-07 02:02:00,55.0,35.0,-100.00,SSW,206,0.0,6.0,47,0.00,,,0.00,0.000000,,2013-06-07 09:02:00,
2013-06-07 02:11:00,51.0,34.0,-100.00,NNW,328,1.0,7.0,52,0.00,,,0.00,0.000000,,2013-06-07 09:11:00,
2013-06-07 02:32:00,51.0,34.0,-100.00,NNW,328,1.0,7.0,52,0.00,,,0.00,0.000000,,2013-06-07 09:32:00,
2013-06-07 02:43:00,51.0,34.0,-100.00,NNW,328,1.0,7.0,52,0.00,,,0.00,0.000000,,2013-06-07 09:43:00,
2013-06-07 02:53:00,51.0,34.0,-100.00,NNW,328,1.0,7.0,52,0.00,,,0.00,0.000000,,2013-06-07 09:53:00,
2013-06-07 03:02:00,51.0,34.0,-100.00,NNW,328,1.0,7.0,52,0.00,,,0.00,0.000000,,2013-06-07 10:02:00,
2013-06-07 03:11:00,50.0,33.0,-100.00,ESE,111,0.0,3.0,52,0.00,,,0.00,0.000000,,2013-06-07 10:11:00,
2013-06-07 03:33:00,50.0,33.0,-100.00,ESE,111,0.0,3.0,52,0.00,,,0.00,0.000000,,2013-06-07 10:33:00,
2013-06-07 03:42:00,50.0,33.0,-100.00,ESE,111,0.0,3.0,52,0.00,,,0.00,0.000000,,2013-06-07 10:42:00,
2013-06-07 03:53:00,50.0,33.0,-100.00,ESE,111,0.0,3.0,52,0.00,,,0.00,0.000000,,2013-06-07 10:53:00,
2013-06-07 04:02:00,50.0,33.0,-100.00,ESE,111,0.0,3.0,52,0.00,,,0.00,0.000000,,2013-06-07 11:02:00,
2013-06-07 04:11:00,50.0,31.0,-100.00,SE,136,0.0,3.0,48,0.00,,,0.00,0.000000,,2013-06-07 11:11:00,
2013-06-07 04:32:00,50.0,31.0,-100.00,SE,136,0.0,3.0,48,0.00,,,0.00,0.000000,,2013-06-07 11:32:00,
2013-06-07 04:42:00,50.0,31.0,-100.00,SE,136,0.0,3.0,48,0.00,,,0.00,0.000000,,2013-06-07 11:42:00,
2013-06-07 04:52:00,50.0,31.0,-100.00,SE,136,0.0,3.0,48,0.00,,,0.00,0.000000,,2013-06-07 11:52:00,
2013-06-07 05:02:00,50.0,31.0,-100.00,SE,136,0.0,3.0,48,0.00,,,0.00,0.000000,,2013-06-07 12:02:00,
2013-06-07 05:11:00,49.0,33.0,-100.00,ENE,61,0.0,0.0,54,0.00,,,0.00,0.000000,,2013-06-07 12:11:00,
2013-06-07 05:33:00,49.0,33.0,-100.00,ENE,61,0.0,0.0,54,0.00,,,0.00,0.000000,,2013-06-07 12:33:00,
2013-06-07 05:42:00,49.0,33.0,-100.00,ENE,61,0.0,0.0,54,0.00,,,0.00,0.000000,,2013-06-07 12:42:00,
2013-06-07 05:52:00,49.0,33.0,-100.00,ENE,61,0.0,0.0,54,0.00,,,0.00,0.000000,,2013-06-07 12:52:00,
2013-06-07 06:02:00,49.0,33.0,-100.00,ENE,61,0.0,0.0,54,0.00,,,0.00,0.000000,,2013-06-07 13:02:00,
2013-06-07 06:11:00,48.0,38.0,-100.00,ENE,69,0.0,0.0,68,0.00,,,0.00,6.000000,,2013-06-07 13:11:00,
2013-06-07 06:32:00,48.0,38.0,-100.00,ENE,69,0.0,0.0,68,0.00,,,0.00,6.000000,,2013-06-07 13:32:00,
2013-06-07 06:43:00,48.0,38.0,-100.00,ENE,69,0.0,0.0,68,0.00,,,0.00,6.000000,,2013-06-07 13:43:00,
2013-06-07 06:52:00,48.0,38.0,-100.00,ENE,69,0.0,0.0,68,0.00,,,0.00,6.000000,,2013-06-07 13:52:00,
2013-06-07 07:02:00,48.0,38.0,-100.00,ENE,69,0.0,0.0,68,0.00,,,0.00,6.000000,,2013-06-07 14:02:00,
2013-06-07 07:11:00,51.0,39.0,-100.00,East,88,0.0,4.0,63,0.00,,,0.00,39.000000,,2013-06-07 14:11:00,
2013-06-07 07:33:00,51.0,39.0,-100.00,East,88,0.0,4.0,63,0.00,,,0.00,39.000000,,2013-06-07 14:33:00,
2013-06-07 07:42:00,51.0,39.0,-100.00,East,88,0.0,4.0,63,0.00,,,0.00,39.000000,,2013-06-07 14:42:00,
2013-06-07 07:52:00,51.0,39.0,-100.00,East,88,0.0,4.0,63,0.00,,,0.00,39.000000,,2013-06-07 14:52:00,
2013-06-07 08:02:00,51.0,39.0,-100.00,East,88,0.0,4.0,63,0.00,,,0.00,39.000000,,2013-06-07 15:02:00,
2013-06-07 08:11:00,55.0,41.0,-100.00,ESE,102,0.0,4.0,60,0.00,,,-99.99,116.000000,,2013-06-07 15:11:00,
2013-06-07 08:33:00,55.0,41.0,-100.00,ESE,102,0.0,4.0,60,0.00,,,-99.99,116.000000,,2013-06-07 15:33:00,
2013-06-07 08:43:00,55.0,41.0,-100.00,ESE,102,0.0,4.0,60,0.00,,,-99.99,116.000000,,2013-06-07 15:43:00,
2013-06-07 08:53:00,55.0,41.0,-100.00,ESE,102,0.0,4.0,60,0.00,,,-99.99,116.000000,,2013-06-07 15:53:00,
2013-06-07 09:03:00,55.0,41.0,-100.00,ESE,102,0.0,4.0,60,0.00,,,-99.99,116.000000,,2013-06-07 16:03:00,
2013-06-07 09:11:00,60.0,44.0,-100.00,SE,142,0.0,5.0,55,0.00,,,0.00,294.000000,,2013-06-07 16:11:00,
2013-06-07 09:33:00,60.0,44.0,-100.00,SE,142,0.0,5.0,55,0.00,,,0.00,294.000000,,2013-06-07 16:33:00,
2013-06-07 09:43:00,60.0,44.0,-100.00,SE,142,0.0,5.0,55,0.00,,,0.00,294.000000,,2013-06-07 16:43:00,
2013-06-07 09:53:00,60.0,44.0,-100.00,SE,142,0.0,5.0,55,0.00,,,0.00,294.000000,,2013-06-07 16:53:00,
2013-06-07 10:02:00,60.0,44.0,-100.00,SE,142,0.0,5.0,55,0.00,,,0.00,294.000000,,2013-06-07 17:02:00,
2013-06-07 10:11:00,60.0,45.0,-100.00,SSE,168,0.0,0.0,58,0.00,,,-99.99,284.000000,,2013-06-07 17:11:00,
2013-06-07 10:32:00,60.0,45.0,-100.00,SSE,168,0.0,0.0,58,0.00,,,-99.99,284.000000,,2013-06-07 17:32:00,
2013-06-07 10:43:00,60.0,45.0,-100.00,SSE,168,0.0,0.0,58,0.00,,,-99.99,284.000000,,2013-06-07 17:43:00,
2013-06-07 10:52:00,60.0,45.0,-100.00,SSE,168,0.0,0.0,58,0.00,,,-99.99,284.000000,,2013-06-07 17:52:00,
2013-06-07 11:03:00,60.0,45.0,-100.00,SSE,168,0.0,0.0,58,0.00,,,-99.99,284.000000,,2013-06-07 18:03:00,
2013-06-07 11:11:00,62.0,44.0,-100.00,SSE,168,0.0,8.0,51,0.00,,,0.00,273.000000,,2013-06-07 18:11:00,
2013-06-07 11:38:00,62.0,44.0,-100.00,SSE,168,0.0,8.0,51,0.00,,,0.00,273.000000,,2013-06-07 18:38:00,
2013-06-07 11:45:00,62.0,44.0,-100.00,SSE,168,0.0,8.0,51,0.00,,,0.00,273.000000,,2013-06-07 18:45:00,
2013-06-07 11:58:00,62.0,44.0,-100.00,SSE,168,0.0,8.0,51,0.00,,,0.00,273.000000,,2013-06-07 18:58:00,
2013-06-07 12:11:00,66.0,40.0,-100.00,SSW,194,0.0,10.0,38,0.00,,,0.00,475.000000,,2013-06-07 19:11:00,
2013-06-07 12:50:00,66.0,40.0,-100.00,SSW,194,0.0,10.0,38,0.00,,,0.00,475.000000,,2013-06-07 19:50:00,
2013-06-07 13:03:00,66.0,40.0,-100.00,SSW,194,0.0,10.0,38,0.00,,,0.00,475.000000,,2013-06-07 20:03:00,
2013-06-07 13:11:00,66.0,47.0,-100.00,SSE,156,0.0,8.0,50,0.00,,,0.00,553.000000,,2013-06-07 20:11:00,
2013-06-07 13:40:00,66.0,47.0,-100.00,SSE,156,0.0,8.0,50,0.00,,,0.00,553.000000,,2013-06-07 20:40:00,
2013-06-07 13:57:00,66.0,47.0,-100.00,SSE,156,0.0,8.0,50,0.00,,,0.00,553.000000,,2013-06-07 20:57:00,
2013-06-07 14:11:00,62.0,47.0,-100.00,SSE,150,1.0,8.0,59,0.00,,,0.00,421.000000,,2013-06-07 21:11:00,
2013-06-07 14:42:00,62.0,47.0,-100.00,SSE,150,1.0,8.0,59,0.00,,,0.00,421.000000,,2013-06-07 21:42:00,
2013-06-07 14:59:00,62.0,47.0,-100.00,SSE,150,1.0,8.0,59,0.00,,,0.00,421.000000,,2013-06-07 21:59:00,
2013-06-07 15:07:00,62.0,47.0,-100.00,SSE,150,1.0,8.0,59,0.00,,,0.00,421.000000,,2013-06-07 22:07:00,
2013-06-07 15:39:00,63.0,49.0,-100.00,SSW,196,1.0,9.0,61,0.00,,,0.00,333.000000,,2013-06-07 22:39:00,
2013-06-07 15:49:00,63.0,49.0,-100.00,SSW,196,1.0,9.0,61,0.00,,,0.00,333.000000,,2013-06-07 22:49:00,
2013-06-07 15:59:00,63.0,49.0,-100.00,SSW,196,1.0,9.0,61,0.00,,,0.00,333.000000,,2013-06-07 22:59:00,
2013-06-07 16:05:00,63.0,49.0,-100.00,SSW,196,1.0,9.0,61,0.00,,,0.00,333.000000,,2013-06-07 23:05:00,
2013-06-07 16:11:00,65.0,48.0,-100.00,SE,143,0.0,6.0,54,0.00,,,0.00,297.000000,,2013-06-07 23:11:00,
2013-06-07 16:40:00,65.0,48.0,-100.00,SE,143,0.0,6.0,54,0.00,,,0.00,297.000000,,2013-06-07 23:40:00,
2013-06-07 17:00:00,65.0,48.0,-100.00,SE,143,0.0,6.0,54,0.00,,,0.00,297.000000,,2013-06-08 00:00:00,
2013-06-07 17:11:00,64.0,47.0,-100.00,SE,140,1.0,10.0,55,0.00,,,-99.99,259.000000,,2013-06-08 00:11:00,
2013-06-07 17:37:00,64.0,47.0,-100.00,SE,140,1.0,10.0,55,0.00,,,-99.99,259.000000,,2013-06-08 00:37:00,
2013-06-07 17:47:00,64.0,47.0,-100.00,SE,140,1.0,10.0,55,0.00,,,-99.99,259.000000,,2013-06-08 00:47:00,
2013-06-07 17:57:00,64.0,47.0,-100.00,SE,140,1.0,10.0,55,0.00,,,-99.99,259.000000,,2013-06-08 00:57:00,
2013-06-07 18:03:00,64.0,47.0,-100.00,SE,140,1.0,10.0,55,0.00,,,-99.99,259.000000,,2013-06-08 01:03:00,
2013-06-07 18:11:00,63.0,49.0,-100.00,SSE,161,1.0,7.0,61,0.00,,,0.00,98.000000,,2013-06-08 01:11:00,
2013-06-07 18:39:00,63.0,49.0,-100.00,SSE,161,1.0,7.0,61,0.00,,,0.00,98.000000,,2013-06-08 01:39:00,
2013-06-07 18:47:00,63.0,49.0,-100.00,SSE,161,1.0,7.0,61,0.00,,,0.00,98.000000,,2013-06-08 01:47:00,
2013-06-07 18:58:00,63.0,49.0,-100.00,SSE,161,1.0,7.0,61,0.00,,,0.00,98.000000,,2013-06-08 01:58:00,
2013-06-07 19:11:00,59.0,49.0,-100.00,SE,125,2.0,8.0,70,0.00,,,0.00,71.000000,,2013-06-08 02:11:00,
2013-06-07 19:37:00,59.0,49.0,-100.00,SE,125,2.0,8.0,70,0.00,,,0.00,71.000000,,2013-06-08 02:37:00,
2013-06-07 19:49:00,59.0,49.0,-100.00,SE,125,2.0,8.0,70,0.00,,,0.00,71.000000,,2013-06-08 02:49:00,
2013-06-07 19:57:00,59.0,49.0,-100.00,SE,125,2.0,8.0,70,0.00,,,0.00,71.000000,,2013-06-08 02:57:00,
2013-06-07 20:06:00,59.0,49.0,-100.00,SE,125,2.0,8.0,70,0.00,,,0.00,71.000000,,2013-06-08 03:06:00,
2013-06-07 20:11:00,57.0,49.0,-100.00,SSE,149,1.0,7.0,75,0.00,,,0.00,24.000000,,2013-06-08 03:11:00,
2013-06-07 20:40:00,57.0,49.0,-100.00,SSE,149,1.0,7.0,75,0.00,,,0.00,24.000000,,2013-06-08 03:40:00,
2013-06-07 20:52:00,57.0,49.0,-100.00,SSE,149,1.0,7.0,75,0.00,,,0.00,24.000000,,2013-06-08 03:52:00,
2013-06-07 21:03:00,57.0,49.0,-100.00,SSE,149,1.0,7.0,75,0.00,,,0.00,24.000000,,2013-06-08 04:03:00,
2013-06-07 21:11:00,53.0,48.0,-100.00,ESE,116,0.0,6.0,84,0.00,,,0.00,12.000000,,2013-06-08 04:11:00,
2013-06-07 21:33:00,53.0,48.0,-100.00,ESE,116,0.0,6.0,84,0.00,,,0.00,12.000000,,2013-06-08 04:33:00,
2013-06-07 21:42:00,53.0,48.0,-100.00,ESE,116,0.0,6.0,84,0.00,,,0.00,12.000000,,2013-06-08 04:42:00,
2013-06-07 21:53:00,53.0,48.0,-100.00,ESE,116,0.0,6.0,84,0.00,,,0.00,12.000000,,2013-06-08 04:53:00,
2013-06-07 22:02:00,53.0,48.0,-100.00,ESE,116,0.0,6.0,84,0.00,,,0.00,12.000000,,2013-06-08 05:02:00,
2013-06-07 22:11:00,53.0,49.0,-100.00,ESE,116,0.0,5.0,86,0.00,,,0.00,0.000000,,2013-06-08 05:11:00,
2013-06-07 22:32:00,53.0,49.0,-100.00,ESE,116,0.0,5.0,86,0.00,,,0.00,0.000000,,2013-06-08 05:32:00,
2013-06-07 22:42:00,53.0,49.0,-100.00,ESE,116,0.0,5.0,86,0.00,,,0.00,0.000000,,2013-06-08 05:42:00,
2013-06-07 22:52:00,53.0,49.0,-100.00,ESE,116,0.0,5.0,86,0.00,,,0.00,0.000000,,2013-06-08 05:52:00,
2013-06-07 23:02:00,53.0,49.0,-100.00,ESE,116,0.0,5.0,86,0.00,,,0.00,0.000000,,2013-06-08 06:02:00,
2013-06-07 23:32:00,51.0,48.0,-100.00,East,85,0.0,6.0,90,0.00,,,0.00,0.000000,,2013-06-08 06:32:00,
2013-06-07 23:42:00,51.0,48.0,-100.00,East,85,0.0,6.0,90,0.00,,,0.00,0.000000,,2013-06-08 06:42:00,
2013-06-07 23:52:00,51.0,48.0,-100.00,East,85,0.0,6.0,90,0.00,,,0.00,0.000000,,2013-06-08 06:52:00,